When you browse on this site, cookies collect data to enhance your experience and personalize the content and advertising you see.
Visit our Privacy Policy to learn more. By continuing to use the site, you agree to this use of cookies and data.
  • In Spain
  • List of Countries
  • For 7 days
  • Water Temperature
  • Satellite Maps
  • Weather Map
  • Weather Widgets
  • user-avatar
    Login

    Hourly Weather Punta Gorda

    Today, 18 January, Friday

    Time Temperature Precipitation Wind Pressure Humidity
    00:00 +21°C° 0 mm 2 mps 764 mmHg 92%
    01:00 +21°C° 0.1 mm 2 mps 763 mmHg 93%
    02:00 +21°C° 0.1 mm 2 mps 763 mmHg 93%
    03:00 +21°C° 0.1 mm 2 mps 763 mmHg 94%
    04:00 +20°C° 0.1 mm 2 mps 763 mmHg 94%
    05:00 +20°C° 0.1 mm 2 mps 763 mmHg 94%
    06:00 +20°C° 0 mm 2 mps 763 mmHg 95%
    07:00 +22°C° 0.1 mm 1 mps 763 mmHg 89%
    08:00 +24°C° 0.1 mm 1 mps 763 mmHg 84%
    09:00 +25°C° 0.1 mm 1 mps 763 mmHg 79%
    10:00 +25°C° 0.3 mm 1 mps 763 mmHg 80%
    11:00 +25°C° 0.3 mm 1 mps 763 mmHg 81%
    12:00 +25°C° 0.3 mm 2 mps 762 mmHg 82%
    13:00 +25°C° 0.1 mm 1 mps 762 mmHg 83%
    14:00 +25°C° 0.1 mm 1 mps 761 mmHg 83%
    15:00 +25°C° 0.1 mm 1 mps 761 mmHg 84%
    16:00 +24°C° 0.1 mm 1 mps 761 mmHg 87%
    17:00 +24°C° 0.1 mm 1 mps 761 mmHg 90%
    18:00 +24°C° 0.1 mm 1 mps 761 mmHg 93%
    19:00 +23°C° 0.2 mm 1 mps 761 mmHg 94%
    20:00 +23°C° 0.2 mm 1 mps 761 mmHg 95%
    21:00 +23°C° 0.2 mm 2 mps 762 mmHg 96%
    22:00 +23°C° 0.1 mm 1 mps 762 mmHg 95%
    23:00 +23°C° 0.1 mm 1 mps 761 mmHg 94%

    Tomorrow, 19 January, Saturday

    Time Temperature Precipitation Wind Pressure Humidity
    00:00 +23°C° 0.1 mm 1 mps 761 mmHg 94%
    01:00 +23°C° 0.1 mm 1 mps 761 mmHg 93%
    02:00 +23°C° 0.1 mm 1 mps 761 mmHg 92%
    03:00 +23°C° 0.1 mm 1 mps 760 mmHg 92%
    04:00 +23°C° 0.1 mm 1 mps 760 mmHg 93%
    05:00 +23°C° 0.1 mm 1 mps 760 mmHg 93%
    06:00 +23°C° 0.1 mm 1 mps 760 mmHg 94%
    07:00 +25°C° 0 mm 1 mps 761 mmHg 86%
    08:00 +26°C° 0 mm 1 mps 761 mmHg 79%
    09:00 +26°C° 0 mm 0 mps 761 mmHg 71%
    10:00 +30°C° 0 mm 1 mps 760 mmHg 65%
    11:00 +31°C° 0 mm 1 mps 760 mmHg 59%
    12:00 +32°C° 0 mm 1 mps 760 mmHg 53%
    13:00 +32°C° 0 mm 2 mps 759 mmHg 53%
    14:00 +32°C° 0 mm 2 mps 758 mmHg 52%
    15:00 +33°C° 0 mm 3 mps 757 mmHg 51%
    16:00 +30°C° 0 mm 3 mps 758 mmHg 59%
    17:00 +28°C° 0 mm 3 mps 758 mmHg 66%
    18:00 +27°C° 0 mm 3 mps 758 mmHg 74%
    19:00 +26°C° 0 mm 2 mps 759 mmHg 79%
    20:00 +25°C° 0 mm 2 mps 760 mmHg 84%
    21:00 +24°C° 0 mm 2 mps 761 mmHg 89%
    22:00 +24°C° 0 mm 2 mps 761 mmHg 90%
    23:00 +24°C° 0 mm 1 mps 761 mmHg 91%

    Day after tomorrow, 20 January, Sunday

    Time Temperature Precipitation Wind Pressure Humidity
    00:00 +23°C° 0 mm 1 mps 762 mmHg 92%
    01:00 +23°C° 0 mm 1 mps 762 mmHg 90%
    02:00 +24°C° 0 mm 2 mps 762 mmHg 88%
    03:00 +24°C° 0 mm 2 mps 762 mmHg 86%
    04:00 +24°C° 0.2 mm 2 mps 762 mmHg 87%
    05:00 +24°C° 0.2 mm 2 mps 762 mmHg 88%
    06:00 +23°C° 0.2 mm 2 mps 763 mmHg 89%
    07:00 +24°C° 0.4 mm 2 mps 764 mmHg 85%
    08:00 +26°C° 0.4 mm 2 mps 765 mmHg 81%
    09:00 +27°C° 0.4 mm 2 mps 765 mmHg 77%
    10:00 +27°C° 0.6 mm 2 mps 766 mmHg 77%
    11:00 +26°C° 0.6 mm 2 mps 766 mmHg 77%
    12:00 +26°C° 0.6 mm 2 mps 766 mmHg 77%
    13:00 +25°C° 1 mm 3 mps 765 mmHg 80%
    14:00 +24°C° 1 mm 3 mps 765 mmHg 82%
    15:00 +21°C° 1 mm 4 mps 765 mmHg 85%
    16:00 +22°C° 0.1 mm 3 mps 765 mmHg 80%
    17:00 +22°C° 0.1 mm 3 mps 765 mmHg 74%
    18:00 +24°C° 0.1 mm 3 mps 766 mmHg 69%
    19:00 +24°C° 0 mm 3 mps 766 mmHg 67%
    20:00 +22°C° 0 mm 3 mps 767 mmHg 64%
    21:00 +22°C° 0 mm 4 mps 767 mmHg 62%
    22:00 +22°C° 0 mm 3 mps 767 mmHg 63%
    23:00 +21°C° 0 mm 3 mps 768 mmHg 64%

    21 January, Monday

    Time Temperature Precipitation Wind Pressure Humidity
    00:00 +21°C° 0 mm 2 mps 768 mmHg 65%
    01:00 +20°C° 0 mm 2 mps 767 mmHg 67%
    02:00 +20°C° 0 mm 2 mps 767 mmHg 68%
    03:00 +20°C° 0 mm 2 mps 767 mmHg 69%
    04:00 +19°C° 0 mm 2 mps 767 mmHg 71%
    05:00 +19°C° 0 mm 2 mps 767 mmHg 72%
    06:00 +18°C° 0 mm 2 mps 767 mmHg 74%
    07:00 +19°C° 0 mm 2 mps 768 mmHg 70%
    08:00 +20°C° 0 mm 1 mps 768 mmHg 67%
    09:00 +21°C° 0 mm 1 mps 769 mmHg 64%
    10:00 +22°C° 0 mm 1 mps 768 mmHg 61%
    11:00 +22°C° 0 mm 1 mps 768 mmHg 59%
    12:00 +23°C° 0 mm 1 mps 767 mmHg 57%
    13:00 +24°C° 0 mm 1 mps 766 mmHg 54%
    14:00 +25°C° 0 mm 2 mps 765 mmHg 52%
    15:00 +26°C° 0 mm 2 mps 764 mmHg 49%
    16:00 +24°C° 0 mm 2 mps 765 mmHg 56%
    17:00 +23°C° 0 mm 2 mps 765 mmHg 64%
    18:00 +20°C° 0 mm 2 mps 765 mmHg 71%
    19:00 +20°C° 0 mm 1 mps 765 mmHg 76%
    20:00 +19°C° 0 mm 1 mps 766 mmHg 81%
    21:00 +17°C° 0 mm 0 mps 766 mmHg 87%
    22:00 +19°C° 0 mm 1 mps 766 mmHg 86%
    23:00 +19°C° 0 mm 1 mps 765 mmHg 86%

    22 January, Tuesday

    Time Temperature Precipitation Wind Pressure Humidity
    00:00 +19°C° 0 mm 1 mps 765 mmHg 86%
    01:00 +18°C° 0 mm 1 mps 764 mmHg 86%
    02:00 +18°C° 0 mm 1 mps 764 mmHg 85%
    03:00 +18°C° 0 mm 1 mps 763 mmHg 85%
    04:00 +18°C° 0 mm 1 mps 763 mmHg 86%
    05:00 +18°C° 0 mm 1 mps 763 mmHg 86%
    06:00 +18°C° 0 mm 1 mps 763 mmHg 87%
    07:00 +20°C° 0 mm 1 mps 764 mmHg 80%
    08:00 +22°C° 0 mm 1 mps 764 mmHg 72%
    09:00 +25°C° 0 mm 1 mps 764 mmHg 65%
    10:00 +26°C° 0 mm 1 mps 763 mmHg 62%
    11:00 +28°C° 0 mm 1 mps 763 mmHg 58%
    12:00 +29°C° 0 mm 2 mps 762 mmHg 55%
    13:00 +29°C° 0 mm 2 mps 761 mmHg 56%
    14:00 +29°C° 0 mm 3 mps 760 mmHg 57%
    15:00 +29°C° 0 mm 4 mps 759 mmHg 59%
    16:00 +28°C° 0 mm 4 mps 760 mmHg 65%
    17:00 +27°C° 0 mm 4 mps 760 mmHg 71%
    18:00 +26°C° 0 mm 4 mps 760 mmHg 77%
    19:00 +25°C° 0 mm 3 mps 761 mmHg 82%
    20:00 +25°C° 0 mm 3 mps 761 mmHg 86%
    21:00 +24°C° 0 mm 2 mps 761 mmHg 90%
    22:00 +24°C° 0.1 mm 2 mps 761 mmHg 92%
    23:00 +24°C° 0.1 mm 1 mps 761 mmHg 94%

    23 January, Wednesday

    Time Temperature Precipitation Wind Pressure Humidity
    00:00 +24°C° 0.1 mm 1 mps 761 mmHg 95%
    01:00 +24°C° 0.1 mm 1 mps 760 mmHg 96%
    02:00 +24°C° 0.1 mm 1 mps 760 mmHg 97%
    03:00 +24°C° 0.1 mm 1 mps 760 mmHg 98%
    04:00 +24°C° 0 mm 1 mps 760 mmHg 99%
    05:00 +24°C° 0 mm 1 mps 760 mmHg 99%
    06:00 +23°C° 0 mm 1 mps 760 mmHg 99%
    07:00 +23°C° 0 mm 0 mps 760 mmHg 94%
    08:00 +24°C° 0 mm 0 mps 761 mmHg 89%
    09:00 +25°C° 0 mm 0 mps 761 mmHg 84%
    10:00 +28°C° 0 mm 1 mps 760 mmHg 74%
    11:00 +30°C° 0 mm 1 mps 759 mmHg 63%
    12:00 +32°C° 0 mm 2 mps 759 mmHg 52%
    13:00 +32°C° 0 mm 2 mps 758 mmHg 50%
    14:00 +33°C° 0 mm 3 mps 757 mmHg 48%
    15:00 +33°C° 0 mm 3 mps 756 mmHg 45%
    16:00 +31°C° 0 mm 3 mps 757 mmHg 53%
    17:00 +29°C° 0 mm 4 mps 757 mmHg 60%
    18:00 +27°C° 0 mm 4 mps 758 mmHg 68%
    19:00 +26°C° 0 mm 3 mps 758 mmHg 75%
    20:00 +25°C° 0 mm 3 mps 759 mmHg 81%
    21:00 +25°C° 0 mm 2 mps 759 mmHg 88%
    22:00 +25°C° 0 mm 2 mps 759 mmHg 91%
    23:00 +25°C° 0 mm 1 mps 759 mmHg 93%
    Show more